星链-4608 (STARLINK-4608 )

导读 | 豆包AI

STARLINK-4608是美国太空探索技术公司Starlink星链互联网卫星星座的一员,于2022年8月28日发射升空。星链旨在打造全球卫星互联网服务,该卫星入轨后,承担着为全球偏远地区、海洋空域等区域提供宽带互联网接入服务的任务,进一步完善了星链星座的组网覆盖能力。

基本信息
目录编号:
53621
目录名称:
STARLINK-4608
国际标识:
2022-104AK
轨道中心:
EARTH
卫星名称:
星链-4608
卫星全名:
星链-4608 (STARLINK-4608 )
卫星状态:
在轨 (已飞行1295 天)
发射日期:
2022-08-28 UTC
国别 :
美国 (US)
星等 :
--
轨道信息
数据来源 国际轨道数据 AOE轨道数据
星历时间 2026-03-15T02:38:51+0800
13小时前
查看轨道信息
2026-03-11T11:00:00+0800
4天前
查看轨道信息
半长轴 6917.862km 6917.847km
偏心率 0.0001314 0.0001238
轨道倾角 53.217° 53.217°
近地点辐角 96.782° 77.968°
升交点赤经 211.237° 227.633°
平近点角 263.332° 234.439°
近地点 538.815km 538.853km
远地点 540.635km 540.567km
周期 95.437分钟 95.437分钟
每日圈数 15.088463 15.08851
详细信息
固有亮度:
5
最大亮度:
2.5
卫星平台:
Starlink v1.5
覆盖范围:
全球
运营商:
太空探索技术公司
运营商所在国:
美国
制造商(研发单位):
太空探索技术公司
制造商所在国:
美国
使用方式:
暂无
卫星简介
星链(Starlink)计划是由太空探索技术公司(SpaceX)提出的一个巨型低轨卫星互联网星座项目,计划在2019年至2024年间在太空搭建由约1.2万颗卫星组成的“星链”网络,其中1584颗将部署在地球上空550千米处的近地轨道,并从2020年开始工作。该卫星仍在工作。
2D轨道图
3D轨道图
轨道高度分析图
轨道倾角分析图
轨道综合分析图
查看轨道综合分析图